Flag for New Zealand

Past Weather in Gisborne, New Zealand — Yesterday and Last 2 Weeks

Now
59 °F

Cool.


Feels Like: 59 °F
Forecast: 70 / 57 °F
Wind: 6 mph from Northwest

Location: Gisborne Aerodrome Aws
Current Time: Sep 25, 2020 at 7:24:51 am
Latest Report: Sep 25, 2020 at 6:00 am
Visibility: 13 mi
Pressure29.81 "Hg
Humidity: 71%
Dew Point: 50 °F
Location of GisborneLocation

Past Weather in Gisborne — Graph

°F

Gisborne Temperature Yesterday

Maximum temperature yesterday: 68 °F (at 3:00 pm)
Minimum temperature yesterday: 60 °F (at 1:00 am)
Average temperature yesterday: 63 °F

High & Low Weather Summary for the Past Weeks

 TemperatureHumidityPressure
High69 °F (Sep 17, 2:00 pm)99% (Sep 20, 7:00 am)30.44 "Hg (Sep 20, 7:00 am)
Low33 °F (Sep 13, 6:00 am)37% (Sep 16, 1:00 pm)29.74 "Hg (Sep 24, 7:00 pm)
Average55 °F69%30.09 "Hg
* Reported Sep 10 6:00 am — Sep 25 6:00 am, Gisborne. Weather by CustomWeather, © 2020

Note: Actual official high and low records may vary slightly from our data, if they occured in-between our weather recording intervals... More about our weather records

Gisborne Weather History for the Previous 24 Hours

Scroll right to see more
 ConditionsComfort  
Time TempWeatherWind HumidityBarometerVisibility
6:00 am
Fri, Sep 25
59 °FCool.6 mph71%29.81 "Hg12 mi
5:00 am59 °FCool.12 mph71%29.78 "Hg12 mi
4:00 am58 °FCool.7 mph74%29.79 "Hg12 mi
3:00 am60 °FCool.3 mph68%29.78 "Hg12 mi
2:00 am61 °FCool.5 mph66%29.78 "Hg12 mi
1:00 am62 °FMild.7 mph60%29.78 "Hg12 mi
12:00 am64 °FMild.14 mph60%29.77 "Hg12 mi
11:00 pm
Thu, Sep 24
64 °FMild.12 mph65%29.77 "Hg12 mi
10:00 pm64 °FMild.12 mph67%29.76 "Hg12 mi
9:00 pm62 °FCool.7 mph74%29.75 "Hg12 mi
8:00 pm61 °FCool.6 mph74%29.75 "Hg12 mi
7:00 pm62 °FMild.13 mph69%29.74 "Hg12 mi
6:00 pm63 °FMild.15 mph68%29.76 "Hg12 mi
5:00 pm65 °FMild.20 mph64%29.75 "Hg12 mi
4:00 pm66 °FMild.17 mph62%29.76 "Hg12 mi
3:00 pm68 °FMild.18 mph60%29.76 "Hg12 mi
2:00 pm67 °FMild.21 mph59%29.78 "Hg12 mi
12:00 pm68 °FMild.20 mph66%29.81 "Hg12 mi
11:00 am68 °FMild.20 mph63%29.81 "Hg12 mi
10:00 am62 °FMild.5 mph74%29.83 "Hg12 mi
9:00 am62 °FCool.6 mph73%29.85 "Hg12 mi
8:00 am62 °FCool.8 mph73%29.85 "Hg12 mi
7:00 am63 °FMild.13 mph70%29.84 "Hg12 mi
Weather by CustomWeather, © 2020

See weather overview